Weather History for Sioux City, IA

Change the Weather History Date:

Saturday, November 3, 2012

  Actual Average Record
Temperature  
Mean Temperature 37 °F 43 °F  
Max Temperature 51 °F 54 °F 81 °F (1978)
Min Temperature 22 °F 31 °F 3 °F (1991)
Degree Days  
Heating Degree Days 28 22  
Month to date heating degree days 76 65  
Since 1 July heating degree days 757 665  
Cooling Degree Days 0 0  
Month to date cooling degree days 0 0  
Year to date cooling degree days 1249 869  
Moisture  
Dew Point 29 °F    
Average Humidity 73    
Maximum Humidity 96    
Minimum Humidity 50    
Precipitation  
Precipitation 0.00 in 0.04 in 0.87 in (2003)
Month to date precipitation 0.00 0.14  
Year to date precipitation 21.38 25.77  
Snow  
Snow 0.00 in 0.10 in 1.70 in (1990)
Month to date snowfall 0.0 0.3  
Since 1 July snowfall 0.1 1.3  
Since 1 September snowfall 0.1 1.3  
Snow Depth 0.00 in    
Sea Level Pressure  
Sea Level Pressure 30.21 in    
Wind  
Wind Speed 3 mph (NNW)    
Max Wind Speed 9 mph    
Max Gust Speed 13 mph    
Visibility 10 miles    
Events      
T = Trace of Precipitation, MM = Missing Value Source: NWS Daily Summary

Daily Weather History Graph

Daily Weather History Graph

Search for Another Location

Airport:

Trip Planner

Search our weather history database for the weather conditions in past years. The results will help you decide how hot, cold, wet, or windy it might be!

Date:

Astronomy

Nov. 03, 2012 Rise Set
Actual Time 8:02 AM CDT 6:15 PM CDT
Civil Twilight 7:32 AM CDT 6:44 PM CDT
Nautical Twilight 6:59 AM CDT 7:18 PM CDT
Astronomical Twilight 6:26 AM CDT 7:50 PM CDT
Moon 9:55 PM CDT (11/3) 12:09 PM CDT (11/3)
Length of Visible Light 11h 12m
Length of Day
10h 13m
Waning Gibbous, 80% of the Moon is Illuminated
Nov 3
Waning Gibbous
Nov 6
Last Quarter
Nov 13
New
Nov 20
First Quarter
Nov 28
Full

Hourly Weather History & Observations

Time (CDT) Temp. Windchill Dew Point Humidity Pressure Visibility Wind Dir Wind Speed Gust Speed Precip Events Conditions
12:52 AM 30.0 °F 25.2 °F 26.1 °F 85% 30.15 in 10.0 mi NNW 4.6 mph - N/A   Clear
1:52 AM 30.0 °F 25.2 °F 27.0 °F 88% 30.16 in 10.0 mi NW 4.6 mph - N/A   Clear
2:52 AM 28.0 °F 24.2 °F 26.1 °F 92% 30.16 in 10.0 mi NW 3.5 mph - N/A   Clear
3:52 AM 27.0 °F - 24.1 °F 89% 30.17 in 10.0 mi Calm Calm - N/A   Clear
4:52 AM 26.1 °F 20.5 °F 25.0 °F 96% 30.19 in 10.0 mi NW 4.6 mph - N/A   Clear
5:52 AM 24.1 °F - 21.9 °F 91% 30.20 in 8.0 mi Calm Calm - N/A   Clear
6:52 AM 23.0 °F 18.4 °F 21.9 °F 96% 30.21 in 7.0 mi WNW 3.5 mph - N/A   Clear
7:52 AM 24.1 °F 17.0 °F 23.0 °F 96% 30.23 in 10.0 mi NW 5.8 mph - N/A   Partly Cloudy
8:52 AM 30.9 °F - 28.9 °F 92% 30.24 in 10.0 mi Calm Calm - N/A   Overcast
9:52 AM 37.0 °F - 32.0 °F 82% 30.25 in 10.0 mi Calm Calm - N/A   Mostly Cloudy
10:52 AM 39.0 °F - 32.0 °F 76% 30.25 in 10.0 mi Calm Calm - N/A   Overcast
11:52 AM 41.0 °F 38.0 °F 30.9 °F 67% 30.27 in 10.0 mi NW 4.6 mph - N/A   Overcast
12:52 PM 45.0 °F 42.6 °F 32.0 °F 60% 30.25 in 10.0 mi NNW 4.6 mph - N/A   Overcast
1:52 PM 48.9 °F - 30.9 °F 50% 30.23 in 10.0 mi NNW 3.5 mph - N/A   Scattered Clouds
2:52 PM 48.9 °F - 32.0 °F 52% 30.22 in 10.0 mi NNW 4.6 mph - N/A   Clear
3:52 PM 50.0 °F - 33.1 °F 52% 30.22 in 10.0 mi Variable 4.6 mph - N/A   Clear
4:52 PM 51.1 °F - 33.1 °F 50% 30.20 in 10.0 mi Calm Calm - N/A   Clear
5:52 PM 48.9 °F - 33.1 °F 54% 30.20 in 10.0 mi NNW 3.5 mph - N/A   Scattered Clouds
6:52 PM 43.0 °F - 30.9 °F 62% 30.22 in 8.0 mi Calm Calm - N/A   Clear
7:52 PM 39.9 °F - 30.9 °F 70% 30.24 in 10.0 mi Calm Calm - N/A   Clear
8:52 PM 36.0 °F - 28.9 °F 76% 30.23 in 10.0 mi Calm Calm - N/A   Mostly Cloudy
9:52 PM 39.0 °F 36.8 °F 32.0 °F 76% 30.22 in 10.0 mi ESE 3.5 mph - N/A   Overcast
10:52 PM 37.9 °F 34.4 °F 32.0 °F 79% 30.22 in 10.0 mi ESE 4.6 mph - N/A   Overcast
11:52 PM 37.9 °F 35.5 °F 30.9 °F 76% 30.21 in 10.0 mi ESE 3.5 mph - N/A   Overcast